FREGAT R/B

基本信息
目录编号:
57601
目录名称:
FREGAT R/B
国际标识:
2023-118B
轨道中心:
EARTH
物体状态:
已陨落(2024-02-26)
发射日期:
2023-08-10 UTC
国别:
俄罗斯(独联体) (CIS)
轨道信息
数据来源: 国际轨道数据
星历时间: 2024-02-16T20:23:27+0800
半长轴: 258823.879km
偏心率: 0.6262161
轨道倾角: 45.419°
近地点辐角: 220.339°
升交点赤经: 115.400°
平近点角: 352.945°
近地点: 90366.063km
远地点: 414525.425km
周期: 21840.684分钟
每日圈数: 0.065932
详细信息
发射场:
VOSTO
轨道高度:
HEO
数据来源:
AOE Integration Group
参考系:
TEME
时间系统:
UTC
历元类型:
SGP4
2D轨道图
3D轨道图
轨道高度分析图
轨道倾角分析图
轨道综合分析图
查看轨道综合分析图